Lid_Strength_Index
11 13 15 13 12 11 12 13 14 12 10 11 12 12 11 10 10 10 9 9 9 8 6 5 5 4 3 2 5 6 4 4 3 4 4 4 3 3 2 2 1 1 -0 0
13 14 11 10 10 11 12 13 13 11 10 11 12 12 11 10 10 9 9 9 9 9 8 6 5 3 3 3 3 5 5 4 3 4 5 5 5 3 3 2 1 1 0 0
14 12 9 10 11 12 12 13 13 12 11 11 12 14 12 10 9 8 8 8 8 8 8 7 6 4 3 3 3 3 5 4 4 5 6 6 5 5 4 3 3 1 0 1
13 11 11 12 12 11 14 11 11 12 14 17 12 17 14 12 11 9 9 9 9 8 8 8 7 5 3 3 3 3 3 5 5 6 7 7 5 5 5 5 4 3 1 1
13 13 13 13 12 11 13 10 12 12 14 17 16 18 16 13 13 10 10 9 8 8 8 7 7 5 3 3 3 4 4 5 5 6 6 6 6 6 5 4 3 4 3 2
12 10 11 12 10 11 10 12 13 15 17 19 16 17 16 15 13 12 10 8 7 7 7 6 5 5 3 3 5 6 5 5 5 4 4 5 5 5 5 5 4 4 3 2
12 12 11 10 13 11 13 17 20 20 20 19 15 17 16 13 11 10 10 8 8 8 7 5 6 5 4 4 5 5 5 5 4 4 3 2 3 3 3 3 4 5 4 4
17 17 12 9 12 13 14 14 18 21 21 18 15 18 15 11 9 9 8 8 7 8 7 6 5 5 5 6 6 5 5 4 3 3 3 2 2 2 2 2 2 2 2 2
17 16 11 10 9 11 13 15 13 16 16 18 17 15 11 10 10 9 8 8 8 8 8 6 6 6 5 5 5 4 3 4 3 2 3 3 3 3 2 2 2 2 2 1
14 17 12 10 9 9 11 10 16 16 20 22 18 17 16 13 11 9 9 8 8 7 7 7 6 6 6 6 6 5 4 3 3 2 2 2 2 2 2 3 3 3 2 2
12 15 15 12 12 13 12 13 13 13 15 21 21 18 13 11 10 10 9 8 7 7 7 7 6 6 5 5 5 5 5 4 4 3 2 3 2 2 2 3 3 3 2 2
11 13 16 14 11 9 10 12 12 18 19 17 18 18 9 9 9 8 7 6 6 6 6 6 6 5 5 5 5 6 4 4 3 3 3 2 2 2 2 3 2 2 2 1
12 14 18 16 14 11 12 11 12 12 14 17 19 17 8 8 8 8 8 7 6 5 5 5 6 6 5 5 5 6 6 5 4 4 4 3 2 3 3 3 2 2 2 2
10 13 15 18 15 13 14 12 11 13 17 17 16 14 11 9 9 8 7 7 6 6 5 5 7 6 6 6 5 5 5 6 5 3 3 3 2 2 3 3 3 3 2 2
12 16 15 14 13 13 13 12 12 13 13 16 13 13 11 10 10 9 8 7 6 6 6 5 6 6 6 5 5 4 4 4 4 5 4 3 2 2 2 2 2 3 3 2
13 17 14 15 13 14 13 11 11 11 11 12 12 14 10 8 8 8 8 7 7 6 6 5 5 5 6 6 5 4 4 4 4 4 4 4 3 3 3 3 3 3 3 2
15 16 17 18 14 13 16 13 12 11 12 13 16 13 9 9 9 8 8 7 7 7 7 7 6 6 6 6 5 5 5 5 4 4 4 4 4 4 4 3 4 4 4 4
15 16 16 16 15 20 13 10 10 11 11 10 10 10 9 9 8 8 8 8 8 8 7 7 7 7 6 6 6 5 5 5 5 5 4 4 4 4 4 4 4 4 4 4
12 13 16 17 18 14 12 11 12 13 12 9 10 10 10 9 10 10 8 8 8 8 8 7 7 7 6 6 5 5 5 5 5 5 5 4 4 4 4 4 3 3 4 4
10 11 14 18 19 20 13 10 7 8 16 9 10 11 11 11 14 12 9 8 7 7 6 7 7 7 7 7 7 7 6 5 5 5 5 4 4 4 4 4 4 3 3 3
14 15 15 16 17 15 10 8 7 16 15 10 10 11 11 11 10 9 7 8 7 7 7 7 7 8 8 7 7 7 6 6 5 5 5 5 4 4 4 4 4 4 3 3
15 16 16 15 17 18 7 9 13 12 10 10 10 10 11 10 9 9 9 9 8 8 8 8 8 9 8 8 8 9 9 7 6 6 6 5 5 5 4 5 4 3 3 3
15 12 15 13 14 10 9 10 9 9 9 9 9 10 10 10 10 10 10 9 10 10 9 8 9 9 9 8 8 9 8 7 7 7 7 7 6 6 6 6 5 5 4 5
10 9 12 11 11 10 9 9 8 8 8 8 8 9 9 10 9 9 11 11 10 10 10 10 10 10 10 9 8 8 8 7 7 8 8 8 8 8 7 7 6 7 6 6
11 10 12 12 11 10 9 9 8 7 8 9 9 9 9 9 9 10 11 11 10 10 10 10 10 10 10 9 9 8 8 8 9 9 9 9 8 8 8 7 7 7 6 7
8 11 16 15 11 11 10 8 8 9 9 9 9 9 7 8 9 10 11 11 11 11 10 11 11 10 10 9 9 8 8 9 9 9 9 9 7 6 6 6 6 8 8 8